Location: *
(45.9500°N, 9.0833°E)
Time: 20:45:32
(UTC+00:00)

Resurs 01 Rocket - Pass Details

Date: 03 March 2021
Orbit: 635 x 643 km, 98.0° (Epoch: 20 April)

Event Time Altitude Azimuth Distance (km) Brightness Sun altitude
Exits shadow 20:50:12 17° 314° (NW) 1,604 4.3 -36.9°
Drops below altitude 10° 20:51:31 10° 326° (NW) 2,032 4.9 -37.1°
Sets 20:53:58 0° 337° (NNW) 2,947 5.7 -37.4°
